Wind_Speed
7 7 7 8 9 8 7 7 7 6 5 5 5 5 5 5 5 4 4 4 5 5 5 5 4 4 4 4 4 4 3 3 3 3 3 4 4 4 4 5 5 4 5
7 7 8 9 9 8 8 7 7 7 6 6 5 5 5 5 4 4 4 4 4 4 4 4 4 3 3 3 3 3 3 2 2 2 2 3 3 4 4 4 4 4 4
8 8 9 10 10 9 8 8 7 7 7 6 6 5 5 4 4 3 3 3 3 3 3 3 3 3 2 2 2 2 1 1 1 1 1 2 3 3 4 4 4 5 5
8 8 9 10 10 9 9 8 8 7 7 7 6 5 4 4 3 3 3 3 3 2 3 3 2 2 2 1 1 1 1 1 1 1 2 2 2 2 3 3 4 4 4
9 9 10 10 10 10 9 9 8 7 7 7 6 6 5 4 4 3 3 2 2 2 2 2 2 1 1 0 1 1 1 1 0 0 1 2 1 2 2 3 3 3 4
9 10 10 11 11 11 11 10 9 8 8 7 7 6 5 4 4 3 2 2 2 2 1 1 1 0 1 1 1 1 1 1 0 0 0 1 1 1 2 2 2 3 3
8 10 11 11 11 11 11 11 10 9 9 8 8 7 6 5 4 3 2 2 1 1 1 1 1 0 1 1 2 2 2 1 1 1 1 1 1 1 1 1 1 2 2
8 10 12 13 12 12 12 11 11 10 10 9 9 8 7 5 4 3 2 2 1 1 1 1 1 1 1 1 2 2 2 2 2 1 2 1 1 1 1 1 0 1 1
8 10 12 13 13 13 13 13 12 12 11 10 10 9 8 6 5 4 3 2 2 1 1 1 1 1 2 2 2 2 2 3 2 2 2 2 2 2 2 1 1 1 1
8 9 11 12 13 14 14 14 13 13 12 12 11 10 8 7 6 5 4 3 2 2 2 2 2 2 3 3 3 3 3 3 3 4 4 3 3 3 3 3 2 2 2
8 9 11 12 13 14 14 14 14 14 13 13 12 10 9 8 7 6 5 4 3 3 3 2 3 3 3 3 3 3 3 3 4 5 4 4 4 4 3 4 4 3 3
10 9 10 12 14 14 15 15 15 15 14 14 13 12 11 9 8 6 5 4 4 3 3 3 3 3 3 3 3 3 3 3 4 5 5 4 4 4 4 4 5 4 4
12 11 11 12 15 15 15 16 16 15 15 14 14 12 11 9 8 7 6 5 4 3 3 3 3 3 3 3 4 3 3 3 3 4 5 4 4 4 5 5 5 5 5
13 13 13 15 16 17 17 17 17 16 15 15 14 13 11 10 8 7 6 6 5 4 3 3 3 3 3 3 3 3 3 2 3 4 3 3 3 4 5 5 5 5 5
15 15 15 16 17 18 17 18 17 17 16 15 14 13 12 10 9 7 6 6 5 4 3 3 2 2 2 2 2 2 2 2 3 3 3 3 3 3 4 5 5 5 5
17 17 16 17 18 19 19 17 17 17 17 15 15 14 12 10 9 7 6 6 5 4 4 3 2 2 1 1 1 1 2 1 1 2 2 2 3 2 3 4 4 5 5
17 18 18 18 18 19 20 18 18 18 17 16 15 14 12 11 9 8 7 6 5 4 4 3 2 2 1 1 0 1 1 1 1 1 2 2 2 2 2 3 3 3 4
18 18 18 17 17 17 19 19 18 18 19 18 16 15 13 12 10 9 7 7 5 5 4 4 3 2 1 0 0 1 1 2 2 2 1 1 2 2 2 2 2 2 3
18 18 18 16 16 16 19 20 18 18 19 19 17 15 14 13 11 9 8 7 6 5 5 4 3 2 2 1 0 1 1 2 3 3 3 2 2 2 2 3 2 2 3
17 16 16 15 16 16 18 19 18 18 19 18 17 15 14 13 11 10 9 8 7 6 6 5 4 3 2 2 1 1 2 3 3 4 4 4 3 3 3 3 3 3 3
15 14 14 14 15 16 16 18 19 19 18 18 17 15 14 13 12 11 9 8 7 7 6 6 5 4 3 2 1 1 2 3 3 4 4 4 4 4 4 4 4 3 3
13 12 12 12 12 14 16 17 18 19 18 17 16 15 15 14 13 11 10 8 7 7 7 7 6 5 4 3 2 2 2 2 3 3 4 4 4 4 4 4 4 4 4
12 10 10 11 11 13 16 16 16 18 17 16 15 14 14 14 13 12 10 9 8 8 8 7 6 5 4 4 3 2 2 1 2 2 3 3 4 4 4 4 4 4 4
11 10 9 9 10 12 15 16 16 16 16 15 15 14 14 14 13 12 11 10 9 8 8 8 7 6 5 5 4 3 2 1 0 1 1 2 3 4 4 5 4 4 4
12 10 8 9 9 11 14 16 16 16 16 16 15 14 14 14 13 12 11 11 10 9 8 8 7 7 6 6 5 4 3 3 2 2 2 3 3 4 4 5 5 5 5
12 11 8 8 9 11 13 15 17 17 17 16 14 14 14 14 13 13 13 12 11 10 9 9 9 8 8 7 6 6 5 5 5 5 4 5 5 5 5 6 6 6 7
Wind_Direction
225 218 214 205 196 189 190 195 195 195 196 189 183 172 157 147 136 125 116 110 107 103 99 96 94 92 86 80 76 79 77 74 70 74 76 75 73 71 70 66 68 70 77
238 226 221 214 202 199 199 205 209 209 208 202 197 188 170 159 147 134 123 118 115 113 108 102 97 93 86 76 71 72 70 63 71 79 79 79 78 79 77 70 69 72 80
245 229 223 218 209 206 208 213 216 218 218 211 206 199 182 169 159 148 138 132 127 122 115 107 99 91 82 74 63 57 54 52 58 70 87 96 94 88 85 79 76 77 81
248 233 226 220 215 214 216 219 222 226 227 224 214 209 197 184 172 164 154 145 137 130 121 114 101 89 81 76 49 12 355 353 11 81 133 130 115 98 91 86 82 80 81
246 235 230 228 225 222 223 225 227 233 236 233 225 221 211 199 185 175 164 150 142 134 128 124 112 96 73 0 318 313 311 323 336 103 127 132 130 115 99 94 89 87 87
246 238 235 234 233 230 228 230 231 235 239 239 235 230 221 209 197 181 170 161 152 141 138 141 139 123 306 300 292 291 291 285 304 328 221 187 163 121 103 101 98 97 95
250 244 239 237 235 233 231 234 237 237 239 240 240 235 228 218 209 195 186 184 170 157 153 153 191 257 304 299 288 285 283 275 268 243 238 217 167 135 114 106 113 115 106
257 248 243 241 236 235 236 236 238 240 241 240 240 237 231 227 222 214 206 209 198 184 174 191 236 273 305 291 284 286 281 267 259 242 253 236 224 191 173 167 159 142 139
265 254 247 244 240 238 239 237 238 240 242 242 242 239 235 235 234 229 222 223 221 230 240 247 254 282 290 282 278 280 279 274 277 264 266 263 254 241 231 238 227 188 172
275 260 251 249 245 241 238 237 236 238 242 243 243 240 239 241 241 237 233 236 242 248 255 264 269 279 281 279 280 281 283 279 274 267 271 269 259 251 245 244 239 234 217
280 267 255 251 248 243 239 237 237 241 243 244 244 245 245 245 245 243 242 249 252 257 261 270 274 273 272 271 278 288 289 290 279 273 270 269 265 259 254 248 243 237 227
285 277 259 253 249 244 239 238 238 241 244 246 245 247 250 249 251 250 247 250 255 261 265 270 273 267 267 265 272 289 294 276 286 286 278 271 265 256 257 252 247 240 233
289 281 270 260 252 245 241 240 238 238 240 243 244 247 249 253 253 251 252 257 263 266 264 268 269 261 258 259 269 284 293 285 286 282 275 267 261 260 260 252 244 239 233
291 286 276 265 255 245 241 236 236 236 237 239 243 246 248 253 255 252 254 263 269 269 263 254 262 249 248 251 262 281 295 280 266 277 276 266 267 267 259 246 240 241 239
293 287 280 269 258 249 241 235 235 234 234 236 240 244 248 255 259 255 255 265 271 271 258 248 247 241 244 250 258 278 291 285 272 278 280 280 283 276 257 241 241 245 248
291 287 280 273 264 253 243 236 233 231 232 233 236 240 244 252 257 257 256 266 273 263 240 227 215 202 227 256 267 288 307 308 286 269 277 288 292 287 264 246 251 256 249
288 286 281 273 263 251 243 241 235 229 229 230 234 238 243 248 253 252 252 258 265 251 231 218 206 205 212 239 315 335 351 360 358 333 299 303 307 316 293 266 267 267 260
288 285 281 272 260 252 244 238 233 228 226 227 230 235 242 244 246 247 248 249 252 244 229 213 206 206 211 186 88 50 43 46 41 37 21 358 349 341 343 320 283 284 280
291 285 280 271 257 253 241 232 231 228 224 224 227 232 238 240 241 241 242 247 244 241 225 211 210 212 207 191 143 74 63 51 55 64 60 42 30 14 352 345 337 308 304
293 287 282 269 253 250 238 227 227 224 221 219 225 229 234 232 234 234 237 242 241 234 222 215 214 207 201 192 155 96 92 79 70 69 57 46 34 28 18 8 359 342 334
296 289 282 268 248 240 230 224 222 220 219 220 223 225 227 227 229 227 233 237 232 226 220 215 209 203 196 188 169 126 100 88 80 68 56 43 40 40 35 27 21 9 4
301 289 281 268 251 237 224 219 218 218 217 219 222 224 223 225 225 225 231 231 227 221 218 216 206 204 201 192 179 154 121 96 84 70 59 47 42 39 33 29 23 17 15
310 298 285 266 251 234 220 213 215 217 217 218 220 221 223 222 222 224 228 228 225 220 217 214 206 205 205 201 188 172 142 126 102 71 59 47 40 35 29 26 21 21 15
316 304 291 271 245 231 216 211 212 216 215 216 216 214 219 219 220 224 227 226 222 218 214 211 209 210 209 210 210 212 214 215 202 26 28 24 23 18 15 12 4 9 2
318 307 286 265 248 228 212 211 211 210 212 216 217 216 220 219 221 223 223 220 219 216 211 210 213 215 216 220 225 237 248 256 273 288 306 322 333 342 349 356 356 350 345
321 318 295 264 246 230 218 212 208 208 214 216 217 219 220 218 220 221 218 217 219 218 218 219 222 223 225 229 234 241 253 264 272 283 293 302 308 313 322 330 335 336 335
Height
5879 5879 5880 5881 5882 5883 5884 5884 5885 5885 5886 5886 5886 5886 5886 5886 5886 5886 5886 5886 5886 5886 5886 5886 5886 5886 5886 5886 5886 5886 5886 5886 5886 5885 5886 5886 5886 5886 5886 5886 5886 5886 5887
5878 5878 5879 5881 5882 5883 5884 5885 5885 5886 5886 5886 5886 5886 5886 5886 5887 5887 5887 5887 5887 5887 5887 5887 5887 5887 5887 5887 5886 5886 5886 5886 5886 5886 5886 5886 5886 5887 5887 5887 5887 5887 5888
5877 5878 5879 5880 5881 5883 5884 5885 5885 5886 5886 5886 5887 5887 5887 5887 5887 5887 5887 5887 5887 5887 5887 5887 5888 5888 5887 5887 5887 5887 5887 5887 5887 5887 5887 5887 5887 5887 5888 5888 5888 5889 5889
5877 5877 5878 5880 5881 5882 5883 5884 5885 5886 5886 5887 5887 5887 5887 5887 5887 5888 5888 5888 5888 5888 5888 5888 5888 5888 5888 5888 5888 5888 5888 5888 5888 5888 5887 5887 5888 5888 5888 5889 5889 5889 5890
5876 5877 5878 5879 5881 5882 5883 5884 5885 5886 5886 5887 5887 5887 5887 5888 5888 5888 5888 5888 5888 5888 5888 5888 5888 5888 5888 5888 5888 5888 5888 5888 5888 5888 5887 5888 5889 5889 5889 5889 5890 5890 5891
5876 5876 5877 5878 5880 5881 5882 5884 5884 5885 5886 5886 5887 5887 5887 5888 5888 5888 5888 5888 5888 5889 5889 5889 5889 5889 5888 5888 5888 5888 5888 5888 5888 5888 5888 5889 5889 5889 5890 5890 5890 5891 5891
5875 5876 5876 5877 5879 5880 5881 5883 5884 5885 5885 5886 5886 5887 5887 5888 5888 5888 5888 5888 5889 5889 5889 5889 5889 5889 5888 5888 5888 5888 5888 5888 5889 5889 5889 5889 5890 5890 5890 5891 5891 5892 5892
5874 5874 5875 5876 5878 5879 5880 5881 5883 5884 5885 5885 5886 5886 5887 5887 5888 5888 5888 5888 5889 5889 5889 5889 5889 5889 5888 5888 5888 5888 5888 5888 5889 5889 5889 5889 5890 5890 5891 5891 5892 5892 5893
5873 5874 5874 5875 5876 5877 5879 5880 5881 5883 5884 5884 5885 5886 5886 5887 5887 5888 5888 5888 5888 5889 5889 5889 5888 5888 5888 5888 5888 5888 5888 5888 5889 5889 5889 5889 5890 5890 5891 5892 5892 5893 5893
5872 5872 5872 5873 5874 5876 5877 5878 5880 5881 5882 5883 5884 5885 5886 5886 5887 5887 5887 5888 5888 5888 5888 5888 5888 5888 5888 5887 5887 5887 5888 5888 5889 5888 5889 5889 5890 5890 5891 5892 5892 5893 5893
5870 5870 5871 5871 5872 5874 5875 5876 5877 5879 5881 5882 5883 5884 5885 5886 5886 5887 5887 5887 5887 5888 5888 5888 5887 5887 5887 5887 5887 5887 5887 5888 5887 5887 5887 5888 5889 5890 5891 5891 5892 5893 5893
5868 5868 5869 5869 5870 5871 5872 5874 5875 5877 5879 5880 5882 5883 5884 5885 5885 5886 5886 5886 5887 5887 5887 5887 5887 5887 5887 5887 5887 5887 5887 5888 5888 5887 5887 5888 5889 5889 5890 5891 5891 5892 5893
5866 5866 5866 5866 5867 5868 5870 5871 5873 5875 5877 5879 5880 5882 5883 5884 5884 5885 5885 5885 5886 5886 5886 5886 5886 5886 5886 5886 5886 5886 5887 5887 5887 5887 5887 5888 5888 5889 5889 5890 5891 5891 5892
5863 5863 5863 5863 5862 5864 5866 5869 5870 5873 5875 5877 5879 5881 5882 5883 5883 5884 5885 5885 5885 5885 5885 5885 5886 5886 5886 5886 5886 5886 5886 5887 5887 5887 5887 5887 5888 5888 5888 5889 5890 5891 5892
5860 5860 5859 5860 5860 5861 5863 5866 5868 5870 5872 5874 5877 5879 5880 5881 5882 5883 5884 5884 5884 5884 5884 5885 5885 5885 5885 5886 5886 5886 5886 5886 5886 5887 5887 5887 5887 5888 5888 5888 5889 5890 5891
5858 5857 5856 5856 5857 5858 5860 5862 5865 5867 5870 5872 5875 5877 5879 5880 5881 5882 5883 5883 5883 5883 5884 5884 5885 5885 5885 5885 5885 5886 5886 5886 5886 5886 5886 5887 5887 5887 5888 5888 5889 5889 5890
5854 5853 5851 5852 5852 5853 5856 5859 5862 5865 5867 5870 5873 5875 5877 5879 5880 5881 5882 5882 5883 5883 5883 5884 5884 5885 5885 5885 5885 5885 5885 5885 5885 5886 5886 5886 5887 5887 5887 5888 5888 5889 5889
5850 5848 5847 5847 5848 5849 5852 5855 5858 5861 5865 5868 5871 5873 5875 5877 5879 5880 5881 5881 5882 5882 5882 5883 5884 5884 5885 5885 5885 5885 5885 5885 5885 5885 5886 5886 5886 5887 5887 5887 5887 5888 5889
5845 5844 5842 5842 5844 5846 5848 5852 5855 5858 5862 5865 5868 5871 5873 5875 5877 5878 5879 5880 5881 5881 5882 5883 5883 5884 5884 5885 5885 5885 5885 5885 5885 5885 5885 5886 5886 5886 5887 5887 5887 5888 5888
5841 5840 5839 5838 5839 5842 5844 5848 5851 5855 5859 5862 5866 5869 5871 5874 5875 5877 5878 5879 5880 5881 5881 5882 5883 5883 5884 5884 5885 5885 5885 5885 5885 5885 5886 5886 5886 5886 5887 5887 5887 5887 5887
5838 5837 5836 5835 5836 5838 5841 5845 5849 5853 5856 5860 5864 5867 5869 5872 5874 5875 5877 5878 5879 5879 5880 5881 5882 5883 5884 5884 5885 5885 5885 5885 5885 5885 5886 5886 5886 5886 5887 5887 5887 5887 5887
5835 5834 5833 5834 5833 5834 5838 5842 5846 5850 5854 5858 5861 5864 5867 5869 5871 5874 5875 5876 5878 5878 5879 5881 5882 5882 5883 5884 5884 5885 5885 5886 5885 5885 5886 5886 5886 5887 5887 5887 5887 5887 5887
5833 5832 5831 5831 5831 5832 5836 5839 5843 5848 5852 5856 5859 5862 5865 5867 5870 5872 5874 5875 5876 5877 5878 5880 5881 5882 5883 5883 5884 5885 5885 5885 5886 5886 5886 5886 5886 5887 5887 5886 5887 5887 5886
5832 5831 5829 5829 5829 5831 5834 5837 5841 5845 5850 5854 5857 5860 5863 5865 5868 5870 5872 5873 5875 5876 5877 5878 5880 5881 5882 5883 5884 5884 5885 5885 5885 5886 5886 5886 5886 5886 5886 5886 5886 5886 5886
5831 5829 5828 5828 5828 5829 5832 5836 5839 5843 5848 5851 5855 5857 5860 5863 5865 5868 5870 5872 5873 5875 5876 5877 5879 5880 5881 5882 5883 5883 5884 5884 5884 5885 5885 5885 5885 5885 5885 5885 5885 5885 5885
5830 5828 5827 5826 5827 5828 5831 5834 5837 5842 5846 5849 5852 5855 5858 5861 5863 5865 5868 5870 5872 5873 5875 5876 5878 5879 5880 5881 5881 5882 5883 5883 5883 5884 5884 5884 5884 5884 5884 5884 5884 5884 5884